Location: *
(37.5724°S, 58.0067°E)
Time: 11:08:30
(UTC+00:00)

Lacrosse 5 - Pass Details

Date: 19 January 2021
Orbit: 715 x 724 km, 57.0° (Epoch: 22 February)

Event Time Altitude Azimuth Distance (km) Brightness Sun altitude
Exits shadow 22:24:38 - 245° (WSW) 2,629 4.7 -25.2°
Reaches altitude 10° 22:26:32 10° 228° (SW) 2,239 4.5 -25.0°
Maximum altitude 22:28:51 13° 201° (SSW) 2,048 4.6 -24.7°
Drops below altitude 10° 22:31:10 10° 174° (S) 2,245 5.2 -24.4°
Sets 22:35:01 0° 146° (SE) 3,170 6.6 -24.0°
